Terminal Aerodrome Forecast
Issued by NWS

Home | Current Version | Previous Version | Text Only | Print | Product List | Glossary On
Versions: 1 2 3 4 5 6 7 8 9 10 11 12 13 14
678
FTPA31 PHFO 301135
TAFHTO
TAF
PHTO 301135Z 3012/3112 22005KT P6SM -RA SCT025 BKN030
     FM302000 07008KT P6SM FEW030 SCT045
     FM310500 24006KT P6SM SCT030 BKN045=

USA.gov is the U.S. government's official web portal to all federal, state and local government web resources and services.